QPF
0.00 0.00 0.01 0.02 0.07 0.12 0.09 0.08 0.08 0.08 0.09 0.08 0.07 0.07 0.08 0.09 0.09 0.08 0.06 0.05 0.03 0.03 0.03 0.06 0.09 0.05 0.07 0.07 0.07 0.09 0.09 0.07 0.05 0.05 0.07 0.06 0.04 0.06 0.06 0.08 0.08 0.07 0.09
0.01 0.01 0.01 0.02 0.04 0.06 0.06 0.09 0.08 0.08 0.07 0.07 0.06 0.08 0.10 0.10 0.08 0.08 0.09 0.06 0.04 0.03 0.03 0.07 0.07 0.06 0.08 0.06 0.06 0.08 0.10 0.08 0.06 0.07 0.09 0.09 0.09 0.10 0.06 0.06 0.05 0.07 0.10
0.00 0.01 0.02 0.03 0.05 0.04 0.04 0.06 0.06 0.06 0.07 0.07 0.07 0.08 0.09 0.09 0.09 0.12 0.11 0.08 0.05 0.03 0.04 0.06 0.05 0.06 0.05 0.07 0.06 0.07 0.08 0.09 0.08 0.07 0.08 0.10 0.12 0.11 0.09 0.05 0.04 0.05 0.06
0.00 0.00 0.01 0.02 0.03 0.03 0.03 0.05 0.06 0.05 0.05 0.06 0.06 0.06 0.05 0.06 0.08 0.11 0.11 0.10 0.08 0.05 0.04 0.04 0.04 0.05 0.05 0.08 0.05 0.07 0.07 0.07 0.08 0.07 0.06 0.08 0.09 0.11 0.12 0.07 0.05 0.05 0.05
0.01 0.01 0.01 0.02 0.03 0.03 0.04 0.05 0.06 0.06 0.05 0.06 0.07 0.07 0.07 0.07 0.09 0.11 0.13 0.13 0.12 0.08 0.04 0.04 0.04 0.05 0.06 0.07 0.06 0.07 0.05 0.05 0.06 0.06 0.07 0.09 0.09 0.10 0.10 0.10 0.08 0.06 0.05
0.00 0.01 0.02 0.03 0.03 0.04 0.04 0.05 0.06 0.05 0.06 0.06 0.06 0.07 0.08 0.09 0.08 0.11 0.11 0.12 0.12 0.11 0.06 0.05 0.06 0.06 0.06 0.06 0.05 0.04 0.05 0.06 0.06 0.06 0.06 0.09 0.09 0.11 0.11 0.10 0.09 0.08 0.06
0.01 0.01 0.01 0.02 0.03 0.03 0.04 0.05 0.06 0.05 0.05 0.05 0.05 0.06 0.08 0.11 0.09 0.08 0.09 0.11 0.12 0.11 0.09 0.07 0.06 0.07 0.06 0.05 0.04 0.04 0.05 0.04 0.04 0.05 0.06 0.08 0.08 0.07 0.09 0.10 0.08 0.08 0.07
0.00 0.00 0.01 0.02 0.03 0.03 0.04 0.04 0.05 0.06 0.06 0.06 0.05 0.06 0.08 0.08 0.08 0.10 0.09 0.10 0.10 0.11 0.09 0.07 0.06 0.06 0.06 0.05 0.06 0.04 0.04 0.04 0.04 0.04 0.05 0.05 0.04 0.05 0.07 0.07 0.08 0.09 0.09
0.00 0.00 0.00 0.01 0.03 0.04 0.06 0.06 0.06 0.06 0.06 0.07 0.07 0.06 0.07 0.07 0.09 0.10 0.09 0.09 0.10 0.08 0.06 0.05 0.04 0.04 0.05 0.05 0.05 0.05 0.05 0.04 0.03 0.03 0.04 0.04 0.04 0.04 0.04 0.03 0.05 0.07 0.09
0.00 0.00 0.00 0.00 0.01 0.03 0.04 0.05 0.06 0.07 0.07 0.08 0.09 0.05 0.07 0.08 0.10 0.12 0.11 0.09 0.08 0.08 0.06 0.05 0.04 0.05 0.04 0.03 0.04 0.04 0.04 0.05 0.04 0.04 0.04 0.05 0.04 0.05 0.04 0.02 0.03 0.04 0.06
0.00 0.00 0.01 0.01 0.01 0.01 0.01 0.03 0.05 0.07 0.07 0.07 0.09 0.08 0.08 0.08 0.11 0.12 0.11 0.11 0.11 0.09 0.08 0.07 0.06 0.05 0.05 0.05 0.05 0.05 0.05 0.05 0.05 0.05 0.05 0.04 0.05 0.07 0.06 0.04 0.03 0.03 0.03
0.00 0.00 0.00 0.01 0.02 0.02 0.02 0.03 0.05 0.06 0.05 0.04 0.05 0.07 0.09 0.10 0.09 0.10 0.11 0.12 0.10 0.09 0.09 0.08 0.08 0.07 0.06 0.06 0.05 0.04 0.05 0.06 0.07 0.06 0.06 0.04 0.05 0.05 0.05 0.05 0.04 0.03 0.03
0.00 0.00 0.01 0.01 0.03 0.03 0.04 0.05 0.06 0.06 0.06 0.05 0.05 0.07 0.07 0.07 0.08 0.09 0.09 0.10 0.09 0.09 0.08 0.07 0.07 0.07 0.07 0.06 0.05 0.04 0.04 0.05 0.05 0.05 0.05 0.04 0.03 0.03 0.03 0.03 0.03 0.03 0.03
0.01 0.01 0.02 0.03 0.04 0.03 0.03 0.05 0.05 0.05 0.04 0.05 0.06 0.08 0.07 0.07 0.09 0.11 0.08 0.08 0.08 0.08 0.07 0.06 0.07 0.06 0.06 0.06 0.05 0.05 0.04 0.04 0.03 0.04 0.04 0.03 0.03 0.03 0.04 0.04 0.04 0.04 0.05
0.01 0.01 0.02 0.04 0.05 0.06 0.05 0.05 0.05 0.05 0.04 0.05 0.06 0.07 0.06 0.08 0.10 0.12 0.10 0.08 0.07 0.07 0.08 0.08 0.10 0.08 0.07 0.06 0.06 0.05 0.04 0.04 0.04 0.04 0.04 0.04 0.04 0.04 0.05 0.05 0.05 0.06 0.05
0.01 0.01 0.03 0.04 0.05 0.05 0.06 0.04 0.06 0.06 0.05 0.06 0.06 0.08 0.08 0.08 0.09 0.10 0.10 0.08 0.08 0.10 0.10 0.09 0.08 0.08 0.06 0.05 0.05 0.05 0.04 0.04 0.05 0.06 0.06 0.05 0.03 0.03 0.05 0.05 0.04 0.04 0.04
0.01 0.03 0.04 0.05 0.05 0.05 0.06 0.05 0.05 0.06 0.07 0.07 0.09 0.10 0.10 0.10 0.09 0.09 0.09 0.08 0.08 0.10 0.10 0.09 0.09 0.10 0.08 0.05 0.04 0.03 0.04 0.05 0.06 0.08 0.08 0.05 0.04 0.05 0.03 0.04 0.03 0.02 0.01
0.03 0.05 0.05 0.06 0.06 0.06 0.06 0.07 0.07 0.07 0.08 0.10 0.13 0.14 0.12 0.12 0.12 0.11 0.09 0.08 0.07 0.07 0.08 0.07 0.08 0.09 0.07 0.05 0.03 0.02 0.03 0.05 0.05 0.06 0.06 0.06 0.07 0.06 0.05 0.04 0.04 0.04 0.03
0.05 0.06 0.06 0.06 0.06 0.06 0.07 0.08 0.08 0.07 0.08 0.11 0.12 0.14 0.13 0.13 0.13 0.12 0.11 0.10 0.10 0.09 0.09 0.08 0.08 0.08 0.06 0.04 0.02 0.02 0.04 0.06 0.05 0.05 0.05 0.06 0.08 0.08 0.06 0.05 0.06 0.06 0.06
0.03 0.04 0.06 0.07 0.07 0.07 0.07 0.09 0.08 0.06 0.06 0.07 0.07 0.09 0.09 0.10 0.11 0.13 0.12 0.12 0.12 0.11 0.11 0.11 0.11 0.10 0.07 0.05 0.03 0.03 0.04 0.06 0.07 0.07 0.06 0.07 0.07 0.06 0.04 0.04 0.05 0.06 0.06
0.02 0.02 0.03 0.05 0.07 0.08 0.08 0.10 0.08 0.05 0.06 0.06 0.06 0.07 0.07 0.09 0.09 0.10 0.11 0.12 0.12 0.13 0.12 0.12 0.13 0.12 0.09 0.06 0.05 0.04 0.03 0.05 0.07 0.07 0.06 0.05 0.03 0.02 0.02 0.02 0.03 0.03 0.03
0.02 0.02 0.03 0.04 0.05 0.07 0.07 0.07 0.09 0.06 0.06 0.09 0.09 0.08 0.08 0.07 0.07 0.09 0.10 0.11 0.12 0.12 0.12 0.12 0.11 0.11 0.09 0.06 0.04 0.04 0.03 0.04 0.05 0.06 0.06 0.05 0.03 0.03 0.02 0.02 0.02 0.02 0.02
0.02 0.03 0.03 0.04 0.04 0.06 0.08 0.11 0.11 0.09 0.10 0.10 0.11 0.11 0.10 0.10 0.10 0.10 0.11 0.12 0.12 0.11 0.10 0.10 0.10 0.11 0.09 0.07 0.05 0.04 0.04 0.04 0.04 0.04 0.05 0.04 0.03 0.03 0.03 0.02 0.02 0.02 0.02
0.02 0.03 0.05 0.04 0.05 0.05 0.07 0.10 0.11 0.10 0.11 0.12 0.12 0.11 0.10 0.11 0.13 0.12 0.11 0.10 0.09 0.09 0.09 0.09 0.09 0.09 0.08 0.07 0.05 0.04 0.04 0.04 0.05 0.04 0.04 0.04 0.04 0.03 0.03 0.03 0.03 0.03 0.03
0.03 0.04 0.06 0.07 0.06 0.04 0.04 0.06 0.12 0.18 0.15 0.14 0.13 0.13 0.11 0.12 0.11 0.10 0.08 0.07 0.06 0.07 0.06 0.06 0.07 0.08 0.07 0.06 0.06 0.05 0.04 0.04 0.05 0.05 0.04 0.03 0.03 0.03 0.03 0.03 0.04 0.04 0.05
0.02 0.02 0.03 0.04 0.05 0.04 0.05 0.07 0.10 0.19 0.24 0.20 0.16 0.13 0.14 0.14 0.11 0.11 0.09 0.06 0.06 0.06 0.04 0.05 0.05 0.05 0.04 0.04 0.05 0.04 0.04 0.03 0.03 0.04 0.05 0.05 0.05 0.05 0.05 0.05 0.05 0.06 0.07
MSLP
1004.12 1004.60 1005.16 1005.77 1006.38 1006.99 1007.59 1008.16 1008.71 1009.22 1009.71 1010.16 1010.56 1010.91 1011.22 1011.48 1011.71 1011.92 1012.14 1012.38 1012.64 1012.94 1013.27 1013.64 1014.01 1014.40 1014.78 1015.14 1015.47 1015.77 1016.03 1016.25 1016.42 1016.55 1016.64 1016.69 1016.71 1016.71 1016.69 1016.68 1016.69 1016.74 1016.84
1003.73 1004.12 1004.61 1005.16 1005.74 1006.33 1006.92 1007.52 1008.12 1008.71 1009.30 1009.86 1010.36 1010.81 1011.19 1011.50 1011.74 1011.95 1012.15 1012.36 1012.61 1012.91 1013.26 1013.65 1014.07 1014.50 1014.92 1015.31 1015.66 1015.95 1016.20 1016.40 1016.55 1016.66 1016.74 1016.78 1016.79 1016.78 1016.76 1016.72 1016.70 1016.70 1016.74
1003.43 1003.77 1004.21 1004.72 1005.26 1005.82 1006.40 1006.99 1007.60 1008.24 1008.89 1009.53 1010.13 1010.67 1011.13 1011.50 1011.79 1012.02 1012.21 1012.41 1012.64 1012.93 1013.27 1013.68 1014.12 1014.57 1015.02 1015.43 1015.78 1016.08 1016.31 1016.49 1016.63 1016.73 1016.80 1016.85 1016.87 1016.87 1016.84 1016.80 1016.75 1016.71 1016.70
1003.19 1003.52 1003.97 1004.48 1005.01 1005.55 1006.09 1006.66 1007.25 1007.89 1008.55 1009.23 1009.90 1010.52 1011.05 1011.49 1011.84 1012.10 1012.31 1012.51 1012.72 1012.99 1013.31 1013.70 1014.14 1014.60 1015.05 1015.47 1015.83 1016.13 1016.36 1016.53 1016.67 1016.77 1016.84 1016.90 1016.94 1016.95 1016.94 1016.90 1016.84 1016.77 1016.70
1002.95 1003.35 1003.86 1004.42 1004.98 1005.52 1006.04 1006.56 1007.11 1007.70 1008.34 1009.01 1009.70 1010.36 1010.96 1011.47 1011.88 1012.19 1012.43 1012.63 1012.83 1013.07 1013.37 1013.73 1014.14 1014.58 1015.02 1015.44 1015.80 1016.10 1016.34 1016.52 1016.66 1016.77 1016.85 1016.93 1016.99 1017.02 1017.03 1017.00 1016.93 1016.83 1016.72
1002.69 1003.20 1003.84 1004.50 1005.14 1005.71 1006.22 1006.69 1007.17 1007.68 1008.25 1008.88 1009.55 1010.23 1010.87 1011.43 1011.90 1012.27 1012.55 1012.77 1012.97 1013.19 1013.44 1013.76 1014.13 1014.53 1014.95 1015.35 1015.71 1016.02 1016.26 1016.45 1016.60 1016.72 1016.82 1016.91 1016.98 1017.04 1017.06 1017.04 1016.98 1016.87 1016.73
1002.39 1003.06 1003.85 1004.65 1005.40 1006.03 1006.55 1006.98 1007.38 1007.80 1008.27 1008.83 1009.45 1010.11 1010.77 1011.38 1011.90 1012.33 1012.66 1012.91 1013.12 1013.32 1013.54 1013.81 1014.13 1014.49 1014.87 1015.25 1015.60 1015.90 1016.15 1016.34 1016.49 1016.61 1016.71 1016.80 1016.89 1016.95 1016.99 1016.99 1016.93 1016.82 1016.67
1002.09 1002.90 1003.85 1004.81 1005.67 1006.37 1006.92 1007.32 1007.65 1007.98 1008.35 1008.81 1009.36 1009.99 1010.65 1011.29 1011.87 1012.36 1012.75 1013.04 1013.27 1013.46 1013.66 1013.88 1014.15 1014.46 1014.80 1015.15 1015.47 1015.76 1016.00 1016.19 1016.33 1016.44 1016.52 1016.60 1016.68 1016.74 1016.78 1016.79 1016.75 1016.66 1016.52
1001.82 1002.74 1003.82 1004.90 1005.87 1006.65 1007.22 1007.62 1007.90 1008.14 1008.42 1008.79 1009.27 1009.85 1010.50 1011.16 1011.79 1012.34 1012.78 1013.13 1013.38 1013.59 1013.77 1013.96 1014.19 1014.45 1014.75 1015.06 1015.36 1015.62 1015.84 1016.00 1016.12 1016.20 1016.25 1016.30 1016.35 1016.40 1016.44 1016.46 1016.44 1016.38 1016.26
1001.65 1002.62 1003.76 1004.91 1005.94 1006.78 1007.38 1007.78 1008.03 1008.22 1008.43 1008.73 1009.15 1009.68 1010.31 1010.98 1011.64 1012.23 1012.73 1013.12 1013.42 1013.64 1013.82 1014.00 1014.20 1014.43 1014.69 1014.96 1015.23 1015.46 1015.65 1015.78 1015.86 1015.90 1015.91 1015.91 1015.93 1015.95 1015.98 1016.01 1016.02 1015.99 1015.92
1001.64 1002.58 1003.70 1004.85 1005.89 1006.75 1007.37 1007.77 1008.02 1008.18 1008.36 1008.61 1008.98 1009.47 1010.07 1010.73 1011.39 1012.01 1012.54 1012.97 1013.30 1013.55 1013.74 1013.92 1014.11 1014.32 1014.55 1014.80 1015.03 1015.24 1015.40 1015.50 1015.54 1015.54 1015.51 1015.47 1015.44 1015.44 1015.45 1015.49 1015.52 1015.54 1015.53
1001.83 1002.67 1003.70 1004.77 1005.76 1006.59 1007.21 1007.62 1007.87 1008.05 1008.21 1008.44 1008.77 1009.23 1009.78 1010.41 1011.05 1011.66 1012.19 1012.63 1012.98 1013.24 1013.45 1013.64 1013.83 1014.03 1014.26 1014.49 1014.72 1014.91 1015.05 1015.13 1015.15 1015.12 1015.06 1014.99 1014.93 1014.91 1014.92 1014.96 1015.02 1015.08 1015.11
1002.25 1002.94 1003.81 1004.74 1005.63 1006.39 1006.98 1007.40 1007.67 1007.87 1008.04 1008.26 1008.57 1008.98 1009.48 1010.04 1010.62 1011.17 1011.67 1012.08 1012.42 1012.69 1012.90 1013.10 1013.30 1013.52 1013.75 1013.99 1014.21 1014.41 1014.55 1014.63 1014.65 1014.62 1014.55 1014.48 1014.42 1014.39 1014.40 1014.46 1014.54 1014.63 1014.71
1002.90 1003.41 1004.10 1004.86 1005.60 1006.27 1006.81 1007.22 1007.51 1007.73 1007.93 1008.15 1008.43 1008.77 1009.19 1009.65 1010.13 1010.58 1011.00 1011.35 1011.64 1011.89 1012.10 1012.30 1012.51 1012.74 1012.99 1013.24 1013.49 1013.70 1013.87 1013.97 1014.02 1014.01 1013.97 1013.92 1013.88 1013.87 1013.90 1013.98 1014.08 1014.20 1014.31
1003.76 1004.12 1004.61 1005.18 1005.77 1006.32 1006.79 1007.18 1007.49 1007.73 1007.95 1008.17 1008.40 1008.68 1008.99 1009.32 1009.65 1009.97 1010.26 1010.51 1010.73 1010.93 1011.11 1011.30 1011.52 1011.76 1012.02 1012.29 1012.56 1012.80 1012.99 1013.14 1013.22 1013.26 1013.27 1013.27 1013.28 1013.31 1013.38 1013.48 1013.60 1013.74 1013.87
1004.83 1005.06 1005.38 1005.77 1006.20 1006.63 1007.03 1007.39 1007.70 1007.96 1008.18 1008.38 1008.57 1008.76 1008.94 1009.12 1009.29 1009.45 1009.59 1009.72 1009.84 1009.96 1010.10 1010.26 1010.46 1010.70 1010.96 1011.23 1011.51 1011.76 1011.97 1012.14 1012.27 1012.36 1012.43 1012.48 1012.55 1012.63 1012.75 1012.89 1013.04 1013.20 1013.34
1006.07 1006.22 1006.41 1006.65 1006.94 1007.25 1007.58 1007.90 1008.20 1008.46 1008.67 1008.85 1008.98 1009.07 1009.12 1009.15 1009.15 1009.15 1009.13 1009.13 1009.14 1009.18 1009.26 1009.39 1009.55 1009.76 1009.99 1010.23 1010.47 1010.70 1010.90 1011.07 1011.21 1011.32 1011.43 1011.53 1011.65 1011.79 1011.95 1012.12 1012.30 1012.48 1012.64
1007.45 1007.55 1007.66 1007.79 1007.96 1008.18 1008.44 1008.72 1008.99 1009.24 1009.44 1009.57 1009.65 1009.65 1009.59 1009.48 1009.34 1009.19 1009.05 1008.93 1008.85 1008.82 1008.84 1008.90 1009.01 1009.16 1009.32 1009.49 1009.65 1009.79 1009.92 1010.02 1010.12 1010.21 1010.31 1010.42 1010.56 1010.73 1010.92 1011.12 1011.33 1011.52 1011.70
1008.91 1009.01 1009.07 1009.13 1009.22 1009.36 1009.56 1009.79 1010.03 1010.26 1010.43 1010.53 1010.55 1010.49 1010.35 1010.14 1009.91 1009.67 1009.44 1009.25 1009.11 1009.02 1008.98 1008.99 1009.03 1009.08 1009.13 1009.17 1009.19 1009.19 1009.17 1009.15 1009.13 1009.13 1009.16 1009.23 1009.34 1009.49 1009.68 1009.89 1010.10 1010.31 1010.50
1010.39 1010.51 1010.55 1010.57 1010.61 1010.70 1010.84 1011.03 1011.24 1011.43 1011.58 1011.65 1011.64 1011.54 1011.36 1011.12 1010.85 1010.57 1010.32 1010.11 1009.95 1009.83 1009.76 1009.72 1009.67 1009.61 1009.52 1009.40 1009.23 1009.02 1008.80 1008.57 1008.37 1008.20 1008.10 1008.05 1008.08 1008.17 1008.31 1008.49 1008.69 1008.89 1009.09
1011.82 1011.97 1012.02 1012.02 1012.04 1012.09 1012.19 1012.33 1012.50 1012.66 1012.79 1012.84 1012.82 1012.72 1012.55 1012.32 1012.07 1011.83 1011.61 1011.43 1011.30 1011.20 1011.12 1011.03 1010.90 1010.73 1010.48 1010.16 1009.77 1009.33 1008.86 1008.39 1007.95 1007.57 1007.27 1007.06 1006.94 1006.91 1006.96 1007.07 1007.21 1007.38 1007.55
1013.14 1013.32 1013.39 1013.40 1013.40 1013.42 1013.49 1013.60 1013.73 1013.86 1013.97 1014.02 1014.01 1013.94 1013.81 1013.64 1013.47 1013.31 1013.17 1013.07 1013.00 1012.94 1012.87 1012.75 1012.56 1012.27 1011.88 1011.37 1010.76 1010.08 1009.36 1008.63 1007.94 1007.32 1006.80 1006.39 1006.09 1005.90 1005.81 1005.80 1005.85 1005.93 1006.05
1014.30 1014.51 1014.60 1014.62 1014.63 1014.64 1014.68 1014.76 1014.86 1014.96 1015.05 1015.10 1015.11 1015.08 1015.02 1014.94 1014.87 1014.81 1014.79 1014.79 1014.80 1014.79 1014.75 1014.62 1014.38 1014.01 1013.49 1012.83 1012.04 1011.16 1010.22 1009.27 1008.36 1007.52 1006.78 1006.17 1005.68 1005.31 1005.05 1004.88 1004.79 1004.75 1004.76
1015.28 1015.51 1015.64 1015.69 1015.70 1015.71 1015.73 1015.78 1015.84 1015.91 1015.98 1016.03 1016.06 1016.08 1016.09 1016.10 1016.13 1016.19 1016.27 1016.36 1016.45 1016.51 1016.49 1016.36 1016.10 1015.67 1015.07 1014.31 1013.40 1012.39 1011.31 1010.21 1009.14 1008.15 1007.25 1006.46 1005.80 1005.26 1004.82 1004.47 1004.20 1004.00 1003.85
1016.10 1016.36 1016.52 1016.59 1016.63 1016.64 1016.64 1016.66 1016.68 1016.72 1016.76 1016.80 1016.84 1016.89 1016.95 1017.04 1017.15 1017.28 1017.44 1017.61 1017.75 1017.85 1017.86 1017.73 1017.46 1017.01 1016.38 1015.58 1014.64 1013.59 1012.47 1011.32 1010.20 1009.13 1008.14 1007.26 1006.47 1005.78 1005.19 1004.66 1004.20 1003.80 1003.44
1016.81 1017.10 1017.29 1017.40 1017.45 1017.46 1017.45 1017.43 1017.42 1017.41 1017.41 1017.43 1017.46 1017.52 1017.60 1017.72 1017.87 1018.04 1018.24 1018.43 1018.60 1018.70 1018.70 1018.58 1018.30 1017.86 1017.25 1016.49 1015.59 1014.60 1013.53 1012.45 1011.38 1010.34 1009.37 1008.46 1007.62 1006.85 1006.13 1005.45 1004.80 1004.19 1003.61
Thickness
5818 5815 5810 5806 5800 5795 5789 5785 5781 5778 5775 5771 5768 5766 5765 5765 5765 5764 5762 5759 5758 5757 5755 5755 5754 5754 5752 5751 5750 5749 5747 5745 5747 5743 5740 5743 5746 5745 5744 5743 5741 5740 5738
5814 5812 5808 5804 5799 5793 5788 5784 5780 5777 5774 5772 5770 5768 5766 5765 5764 5763 5761 5759 5757 5756 5755 5754 5753 5752 5751 5750 5749 5747 5744 5744 5746 5740 5735 5731 5734 5739 5744 5742 5740 5739 5738
5814 5810 5805 5802 5798 5792 5788 5785 5781 5777 5774 5772 5768 5766 5763 5762 5761 5759 5757 5757 5756 5755 5754 5753 5752 5752 5750 5748 5747 5746 5743 5740 5743 5743 5737 5729 5724 5730 5737 5740 5741 5739 5737
5819 5813 5807 5802 5799 5795 5791 5787 5781 5778 5774 5772 5768 5764 5760 5757 5758 5758 5756 5756 5755 5753 5753 5752 5751 5750 5749 5747 5746 5746 5745 5741 5738 5740 5741 5739 5735 5728 5726 5733 5738 5738 5737
5823 5816 5811 5805 5801 5798 5793 5788 5782 5777 5774 5771 5768 5764 5761 5760 5760 5758 5755 5753 5752 5752 5752 5751 5750 5748 5748 5747 5746 5745 5744 5742 5740 5738 5738 5738 5737 5736 5728 5725 5730 5734 5737
5827 5819 5813 5808 5802 5799 5794 5788 5781 5776 5774 5770 5768 5764 5762 5760 5758 5755 5752 5750 5750 5750 5750 5750 5749 5748 5747 5746 5745 5744 5743 5741 5740 5739 5738 5736 5734 5732 5731 5727 5727 5728 5734
5825 5817 5811 5806 5801 5797 5794 5789 5781 5775 5773 5770 5767 5765 5763 5760 5757 5755 5753 5751 5749 5748 5749 5750 5749 5748 5746 5746 5745 5743 5742 5741 5739 5738 5738 5738 5738 5738 5736 5731 5728 5729 5732
5826 5820 5814 5808 5803 5798 5794 5789 5782 5776 5773 5770 5767 5765 5763 5760 5758 5756 5755 5753 5752 5751 5751 5750 5748 5747 5746 5746 5744 5742 5741 5740 5739 5738 5738 5737 5739 5740 5738 5735 5730 5725 5726
5824 5819 5815 5810 5804 5799 5794 5790 5784 5778 5774 5771 5767 5765 5763 5761 5760 5758 5757 5755 5754 5753 5752 5750 5748 5747 5746 5745 5743 5741 5740 5739 5738 5737 5737 5736 5738 5739 5739 5738 5735 5727 5720
5821 5817 5814 5809 5805 5801 5796 5792 5786 5780 5776 5772 5768 5766 5764 5762 5760 5759 5756 5755 5754 5753 5752 5750 5748 5746 5745 5744 5742 5740 5739 5738 5737 5736 5736 5736 5736 5737 5738 5738 5737 5734 5727
5818 5815 5811 5808 5804 5801 5796 5790 5785 5780 5775 5772 5769 5768 5765 5762 5760 5758 5757 5755 5754 5752 5750 5749 5747 5745 5743 5742 5740 5739 5739 5737 5736 5736 5735 5734 5735 5734 5734 5736 5735 5733 5730
5816 5813 5809 5804 5800 5796 5793 5789 5785 5780 5776 5773 5770 5767 5764 5762 5759 5758 5757 5756 5753 5751 5750 5749 5746 5744 5742 5741 5739 5738 5738 5736 5734 5734 5734 5733 5734 5732 5732 5732 5732 5731 5730
5810 5808 5804 5800 5796 5792 5789 5787 5784 5780 5777 5773 5769 5765 5763 5761 5760 5758 5757 5755 5752 5750 5749 5747 5745 5743 5742 5739 5739 5738 5737 5736 5735 5734 5733 5732 5731 5728 5729 5728 5728 5728 5729
5802 5800 5797 5795 5793 5791 5788 5785 5782 5779 5776 5773 5768 5764 5762 5761 5760 5758 5755 5753 5751 5749 5748 5746 5744 5742 5741 5739 5737 5736 5735 5735 5734 5733 5732 5731 5729 5727 5726 5725 5724 5724 5722
5796 5795 5792 5790 5788 5786 5784 5782 5779 5777 5775 5771 5767 5763 5762 5761 5758 5756 5753 5752 5750 5748 5746 5744 5742 5740 5739 5738 5735 5734 5733 5732 5731 5731 5730 5729 5728 5726 5724 5723 5721 5719 5717
5791 5791 5790 5786 5783 5782 5780 5778 5776 5774 5772 5768 5765 5763 5761 5758 5756 5754 5752 5750 5748 5747 5745 5742 5740 5738 5738 5737 5734 5732 5731 5729 5728 5727 5726 5726 5725 5723 5721 5719 5718 5715 5713
5787 5784 5784 5783 5781 5779 5777 5774 5773 5771 5768 5764 5762 5760 5758 5755 5754 5752 5750 5747 5745 5743 5741 5740 5738 5735 5734 5733 5731 5729 5728 5726 5725 5724 5723 5723 5725 5722 5720 5716 5714 5712 5711
5782 5781 5780 5778 5777 5777 5774 5772 5769 5765 5762 5759 5757 5756 5754 5752 5750 5748 5746 5745 5743 5740 5738 5737 5736 5733 5731 5729 5727 5725 5724 5724 5723 5722 5721 5719 5718 5719 5717 5714 5712 5710 5709
5777 5776 5776 5774 5771 5770 5769 5766 5762 5759 5756 5753 5752 5752 5750 5748 5746 5744 5743 5741 5739 5736 5735 5734 5732 5729 5727 5725 5723 5721 5720 5719 5719 5719 5718 5717 5715 5714 5712 5710 5708 5707 5706
5771 5770 5771 5768 5764 5763 5763 5759 5755 5753 5751 5750 5750 5749 5747 5745 5742 5741 5739 5738 5735 5733 5731 5729 5728 5726 5723 5720 5718 5716 5716 5715 5714 5714 5714 5713 5711 5710 5708 5706 5704 5701 5701
5764 5764 5762 5760 5757 5757 5755 5751 5749 5748 5748 5748 5747 5745 5743 5741 5739 5737 5735 5732 5730 5728 5726 5724 5722 5721 5719 5716 5713 5711 5711 5711 5710 5710 5710 5709 5706 5704 5702 5701 5700 5697 5696
5754 5755 5753 5750 5750 5750 5747 5743 5742 5744 5744 5743 5741 5738 5737 5737 5735 5731 5728 5727 5724 5721 5719 5717 5715 5715 5714 5712 5708 5705 5704 5705 5705 5705 5705 5703 5701 5699 5697 5694 5693 5691 5689
5745 5746 5744 5741 5741 5741 5740 5736 5736 5739 5738 5736 5734 5732 5731 5730 5728 5725 5721 5719 5717 5715 5713 5710 5708 5708 5708 5706 5703 5700 5699 5699 5698 5698 5696 5695 5693 5691 5689 5686 5685 5682 5680
5735 5736 5735 5732 5731 5732 5732 5731 5732 5732 5731 5728 5727 5726 5723 5721 5718 5716 5714 5711 5709 5707 5706 5704 5702 5701 5700 5698 5696 5694 5692 5690 5689 5688 5687 5686 5684 5682 5680 5679 5676 5674 5672
5726 5726 5725 5723 5723 5724 5723 5724 5725 5725 5723 5722 5721 5720 5716 5713 5708 5704 5701 5701 5698 5698 5699 5698 5696 5694 5691 5689 5689 5689 5688 5686 5685 5682 5680 5678 5676 5674 5672 5671 5669 5667 5664
5715 5715 5715 5715 5715 5716 5716 5717 5718 5718 5716 5715 5715 5713 5710 5705 5701 5695 5690 5687 5688 5688 5689 5689 5687 5684 5682 5681 5681 5680 5679 5678 5677 5675 5672 5669 5666 5664 5662 5661 5659 5657 5654